Simultaneous Nadir Overpasses (SNOs) Predictions

Prediction of SNOs between GOES-16 and LANDSAT-8 Satellite Orbit:

Table of predicted SNOs for the next 14.0 days since TLE Epoch: 3/2/2024
Index Date Time (GOES-16) GOES-16 Lat,Lon LANDSAT-8 Lat,Lon Distance(km) Time Diff (sec)
1 03/03/2024 15:00:19 0.05, -75.22 -0.52, -72.44 315.55 80
2 03/04/2024 03:24:23 -0.06, -75.20 -0.56, -77.64 276.94 80
3 03/06/2024 03:09:29 -0.05, -75.21 0.05, -74.67 60.44 80
4 03/08/2024 02:57:15 -0.05, -75.22 0.67, -71.71 398.51 80
5 03/08/2024 15:18:30 0.05, -75.24 0.42, -76.86 184.79 80
6 03/10/2024 15:08:56 0.05, -75.26 -0.22, -73.90 154.53 80
7 03/11/2024 03:30:19 -0.05, -75.25 -0.84, -79.10 437.19 80
8 03/12/2024 14:54:02 0.05, -75.29 -0.88, -70.94 494.59 80
9 03/13/2024 03:18:04 -0.05, -75.27 -0.24, -76.13 97.00 80
10 03/15/2024 03:03:10 -0.05, -75.30 0.44, -73.17 243.60 80
11 03/15/2024 15:24:24 0.05, -75.33 0.70, -78.31 339.36 80
